Regional Weather Roundup
Issued by NWS Charleston, SC

Current Version | Previous Version | Graphics & Text | Print | Product List | Glossary On
Versions: 1 2 3 4 5 6 7 8 9 10 11 12 13 14 15 16 17 18 19 20 21 22 23 24 25 26 27 28 29 30 31 32 33 34 35 36 37 38 39 40 41 42 43 44 45 46 47 48 49 50
000 ASUS42 KCHS 281626 RWRCHS REGIONAL WEATHER ROUNDUP NATIONAL WEATHER SERVICE CHARLESTON SC 1100 AM EST WED JAN 28 2015 NOTE: "FAIR" INDICATES FEW OR NO CLOUDS BELOW 12,000 FEET WITH NO SIGNIFICANT WEATHER AND/OR OBSTRUCTIONS TO VISIBILITY. NOT ALL STATIONS ARE QUALITY CONTROLLED BY THE NATIONAL WEATHER SERVICE. USE DATA WITH CAUTION...ESPECIALLY DEWPOINT OBSERVATIONS. SCZ027-030-031-034>040-042>050-281700- ...SOUTHEAST SOUTH CAROLINA... CITY SKY/WX TMP DP RH WIND PRES REMARKS N CHARLESTON SUNNY 41 19 41 N17 30.28R WATERFRONT PRK N/A 37 N/A N/A W14G20 N/A WCI 29 MOUNT PLEASANT FAIR N/A N/A N/A N10G16 30.26S PINOPOLIS NOT AVBL MONCKS CORNER FAIR 39 19 45 N9G17 30.28S WCI 33 SUMMERVILLE FAIR 41 21 45 N14 30.29S BEAUFORT MCAS SUNNY 43 19 38 N13 30.27F BEAUFORT ARPT FAIR 43 23 45 N16G24 30.27S HILTON HEAD IS SUNNY N/A N/A N/A N12G23 30.28R WALTERBORO SUNNY 43 14 31 N8 30.29S ALLENDALE FAIR 43 16 33 VRB6G14 30.28S ...SOUTHERN MIDLANDS AND PEE DEE... CITY SKY/WX TMP DP RH WIND PRES REMARKS GEORGETOWN NOT AVBL KINGSTREE NOT AVBL ORANGEBURG SUNNY 41 17 38 NE13 30.28S BARNWELL FAIR 45 19 36 NE14 30.29S AIKEN FAIR 41 19 42 N8 30.31R MANNING FAIR 41 19 42 N10 30.28S COLUMBIA SUNNY 42 15 33 N10 30.29S SUMTER SUNNY 40 16 38 NE10 30.27S WCI 33 FLORENCE N/A N/A N/A N/A MISG 30.28R MYRTLE BEACH SUNNY 37 18 44 N15 30.27R WCI 28 N MYRTLE BEACH SUNNY 38 17 42 N10 30.24R WCI 31 $$ GAZ063-065-086>088-099>101-113>116-118-119-134>141-150-281700- ...SOUTHEAST GEORGIA... CITY SKY/WX TMP DP RH WIND PRES REMARKS SAVANNAH ARPT SUNNY 46 18 32 N9 30.28S HUNTER AAF SUNNY 46 20 35 N12G17 30.25F FORT STEWART SUNNY 46 20 37 N9G17 30.26R STATESBORO MOSUNNY 45 25 45 N10 30.28S SYLVANIA SUNNY 44 25 47 NE8G16 30.29S CLAXTON FAIR 45 27 49 N8 30.29R ...CSRA...CENTRAL AND FAR SOUTHEAST GEORGIA... CITY SKY/WX TMP DP RH WIND PRES REMARKS THOMSON SUNNY 45 22 39 NE5 30.33S AUGUSTA-BUSH SUNNY 44 18 35 N9 30.30R AUGUSTA-DANIEL SUNNY 44 15 31 N10 30.30R SWAINSBORO FAIR 46 9 21 N8 30.29F VIDALIA SUNNY 46 28 49 NE13 30.28S EASTMAN FAIR 46 30 53 N5 30.32S HAZLEHURST FAIR 47 30 51 E7G16 30.28R ALMA SUNNY 47 28 47 VRB7 30.28R WAYCROSS SUNNY 50 32 50 NE7 30.27F JESUP FAIR 50 28 43 CALM 30.28S BAXLEY FAIR 46 28 49 N8 30.27S BRUNSWICK SUNNY 48 19 32 NE9 30.28R SAINT SIMONS SUNNY 47 25 42 N9 30.27R $$ SCZ027-028-034-036>038-045-046-048>050-GAZ119-141-281700- ...LAKE AND SUPPLEMENTAL COASTAL OBSERVATIONS... STATION/POSITION TIME TEMP WIND PRES WAVE SWELL AIR SEA DIR/SP/G HT/PER HT/PER/DIR (UTC) (F) (DEG/KT/KT) (MB) (FT/S) (FT/S/D) UPR LAKE MARION NOT AVBL WINYAH BAY 1500 35 360/ 9 1023.0R LAKE MURRAY 1500 39 10/ 2/ 8 1025.1R ACE BASIN NERRS 1500 39 10/ 5 1024.0S FORT PULASKI 1600 42 N/A SAPELO ISLAND 1600 46 360/ 15 1025.0R $$ ANZ835-935-AMZ111-154-330-350-352-354-370-450-454-472-281700- ...C-MAN AND BUOY OBSERVATIONS... STATION/POSITION TIME TEMP WIND PRES WAVE SWELL AIR SEA DIR/SP/G HT/PER HT/PER/DIR (UTC) (F) (DEG/KT/KT) (MB) (FT/S) (FT/S/D) BUOY 41004 1550 40 67 340/ 19/ 27 1023.2R 6/ 6 2/12 BUOY 41008 1550 44 54 30/ 19/ 25 1024.0R 4/ 5 2/ 80/10 FOLLY BEACH CMAN 1600 40 340/ 11/ 19 1025.3R CAPERS NEARSHORE NOT AVBL FRIPP NEARSHORE 1500 40 10/ 17/ 21 N/A STATION/POSITION TIME TEMP WIND PRES WAVE SWELL AIR SEA DIR/SP/G HT/PER HT/PER/DIR (UTC) (F) (DEG/KT/KT) (MB) (FT/S) (FT/S/D) 5E ST. MARYS GA 1522 57 N/A 4/ 5 2/ 80/12 FRYING PAN BUOY 1550 40 64 360/ 19/ 23 1023.0R 5/ 6 2/120/ 9 BUOY 41025 1550 39 65 360/ 23/ 29 1019.9R 8/12 7/ 50/12 CAPE LOOKOUT NC 1600 35 360/ 16/ 19 1021.9R BUOY 41002 1550 57 71 310/ 17/ 25 1017.1R 10/ 8 8/340/ 8 BUOY 41010 1520 62 75 330/ 16/ 21 1020.2R ST AUGUSTINE FL 1600 47 360/ 16/ 17 1024.5R $$

USA.gov is the U.S. government's official web portal to all federal, state and local government web resources and services.